• En España
  • Lista de países
  • Para 7 días
  • Temperatura del agua
  • Mapa Satelital
  • El tiempo en el mapa
  • Informadores
  • user-avatar
    Iniciar sesión

    Tiempo cada hora Ershi

    Hoy, 21 Agosto, Martes

    Tiempo Temperatura Precipitaciones Viento Presión Humedad
    00:00 +17°C° 0,1 mm 2 mps 745 mmHg 94%
    01:00 +16°C° 0,1 mm 2 mps 745 mmHg 95%
    02:00 +16°C° 0,1 mm 2 mps 745 mmHg 95%
    03:00 +16°C° 0 mm 2 mps 745 mmHg 96%
    04:00 +17°C° 0,2 mm 2 mps 745 mmHg 96%
    05:00 +17°C° 0,2 mm 2 mps 745 mmHg 95%
    06:00 +17°C° 0,2 mm 2 mps 745 mmHg 95%
    07:00 +18°C° 0,2 mm 3 mps 745 mmHg 90%
    08:00 +19°C° 0,2 mm 3 mps 745 mmHg 85%
    09:00 +21°C° 0 mm 3 mps 745 mmHg 80%
    10:00 +22°C° 0,3 mm 3 mps 745 mmHg 76%
    11:00 +22°C° 0,3 mm 4 mps 744 mmHg 72%
    12:00 +23°C° 0,3 mm 4 mps 744 mmHg 69%
    13:00 +25°C° 0,2 mm 4 mps 743 mmHg 66%
    14:00 +25°C° 0,2 mm 5 mps 743 mmHg 64%
    15:00 +26°C° 0 mm 4 mps 743 mmHg 62%
    16:00 +25°C° 0,4 mm 4 mps 742 mmHg 66%
    17:00 +23°C° 0,4 mm 4 mps 742 mmHg 70%
    18:00 +23°C° 0,4 mm 4 mps 741 mmHg 74%
    19:00 +22°C° 0,4 mm 4 mps 741 mmHg 77%
    20:00 +20°C° 0,4 mm 4 mps 740 mmHg 80%
    21:00 +19°C° 0,4 mm 4 mps 740 mmHg 83%
    22:00 +19°C° 0,9 mm 4 mps 739 mmHg 86%
    23:00 +19°C° 0,9 mm 5 mps 739 mmHg 89%

    Mañana, 22 Agosto, Miércoles

    Tiempo Temperatura Precipitaciones Viento Presión Humedad
    00:00 +19°C° 0,9 mm 5 mps 739 mmHg 92%
    01:00 +17°C° 0,6 mm 5 mps 739 mmHg 93%
    02:00 +18°C° 0,6 mm 4 mps 739 mmHg 94%
    03:00 +18°C° 0,6 mm 4 mps 739 mmHg 95%
    04:00 +17°C° 0,3 mm 4 mps 739 mmHg 94%
    05:00 +15°C° 0,3 mm 4 mps 739 mmHg 93%
    06:00 +14°C° 0,3 mm 4 mps 739 mmHg 92%
    07:00 +14°C° 0 mm 4 mps 740 mmHg 87%
    08:00 +15°C° 0 mm 4 mps 740 mmHg 81%
    09:00 +15°C° 0 mm 4 mps 740 mmHg 76%
    10:00 +16°C° 0 mm 5 mps 741 mmHg 70%
    11:00 +17°C° 0 mm 5 mps 741 mmHg 64%
    12:00 +19°C° 0 mm 5 mps 741 mmHg 58%
    13:00 +19°C° 0 mm 5 mps 741 mmHg 57%
    14:00 +19°C° 0 mm 5 mps 741 mmHg 56%
    15:00 +19°C° 0 mm 5 mps 741 mmHg 56%
    16:00 +17°C° 0,1 mm 5 mps 742 mmHg 62%
    17:00 +17°C° 0,1 mm 4 mps 742 mmHg 69%
    18:00 +15°C° 0,1 mm 4 mps 742 mmHg 76%
    19:00 +14°C° 0 mm 4 mps 743 mmHg 79%
    20:00 +12°C° 0 mm 4 mps 743 mmHg 83%
    21:00 +11°C° 0 mm 4 mps 744 mmHg 87%
    22:00 +11°C° 0 mm 4 mps 744 mmHg 88%
    23:00 +10°C° 0 mm 4 mps 745 mmHg 89%

    Pasado mañana, 23 Agosto, Jueves

    Tiempo Temperatura Precipitaciones Viento Presión Humedad
    00:00 +10°C° 0 mm 4 mps 745 mmHg 90%
    01:00 +8°C° 0 mm 4 mps 745 mmHg 92%
    02:00 +8°C° 0 mm 4 mps 746 mmHg 93%
    03:00 +7°C° 0 mm 4 mps 746 mmHg 94%
    04:00 +7°C° 0 mm 4 mps 746 mmHg 91%
    05:00 +8°C° 0 mm 5 mps 747 mmHg 88%
    06:00 +8°C° 0 mm 5 mps 747 mmHg 85%
    07:00 +9°C° 0 mm 6 mps 747 mmHg 78%
    08:00 +10°C° 0 mm 6 mps 748 mmHg 71%
    09:00 +11°C° 0 mm 7 mps 748 mmHg 64%
    10:00 +12°C° 0 mm 7 mps 748 mmHg 61%
    11:00 +14°C° 0 mm 7 mps 748 mmHg 58%
    12:00 +15°C° 0 mm 7 mps 748 mmHg 55%
    13:00 +15°C° 0 mm 7 mps 748 mmHg 54%
    14:00 +16°C° 0 mm 7 mps 748 mmHg 53%
    15:00 +16°C° 0 mm 7 mps 748 mmHg 53%
    16:00 +16°C° 0 mm 5 mps 748 mmHg 57%
    17:00 +15°C° 0 mm 4 mps 748 mmHg 62%
    18:00 +14°C° 0 mm 3 mps 748 mmHg 66%
    19:00 +14°C° 0 mm 3 mps 749 mmHg 67%
    20:00 +13°C° 0 mm 3 mps 749 mmHg 68%
    21:00 +12°C° 0 mm 3 mps 749 mmHg 69%
    22:00 +12°C° 0 mm 3 mps 749 mmHg 70%
    23:00 +12°C° 0 mm 3 mps 749 mmHg 71%

    24 Agosto, Viernes

    Tiempo Temperatura Precipitaciones Viento Presión Humedad
    00:00 +11°C° 0 mm 3 mps 749 mmHg 72%
    01:00 +11°C° 0 mm 3 mps 749 mmHg 74%
    02:00 +11°C° 0 mm 3 mps 749 mmHg 75%
    03:00 +11°C° 0 mm 3 mps 749 mmHg 77%
    04:00 +12°C° 0,1 mm 3 mps 749 mmHg 80%
    05:00 +12°C° 0,1 mm 3 mps 749 mmHg 82%
    06:00 +12°C° 0,1 mm 4 mps 749 mmHg 85%
    07:00 +12°C° 0,1 mm 4 mps 749 mmHg 85%
    08:00 +13°C° 0,1 mm 4 mps 749 mmHg 85%
    09:00 +13°C° 0,1 mm 4 mps 749 mmHg 85%
    10:00 +15°C° 0,2 mm 4 mps 749 mmHg 82%
    11:00 +17°C° 0,2 mm 4 mps 749 mmHg 80%
    12:00 +18°C° 0,2 mm 4 mps 749 mmHg 77%
    13:00 +18°C° 0,1 mm 4 mps 749 mmHg 77%
    14:00 +18°C° 0,1 mm 4 mps 749 mmHg 78%
    15:00 +19°C° 0,1 mm 3 mps 749 mmHg 79%
    16:00 +19°C° 0 mm 3 mps 749 mmHg 81%
    17:00 +18°C° 0 mm 2 mps 749 mmHg 82%
    18:00 +18°C° 0 mm 2 mps 749 mmHg 84%
    19:00 +18°C° 0 mm 1 mps 750 mmHg 87%
    20:00 +16°C° 0 mm 1 mps 750 mmHg 89%
    21:00 +15°C° 0 mm 1 mps 750 mmHg 92%
    22:00 +15°C° 0 mm 1 mps 750 mmHg 93%
    23:00 +15°C° 0 mm 1 mps 750 mmHg 93%

    25 Agosto, Sábado

    Tiempo Temperatura Precipitaciones Viento Presión Humedad
    00:00 +14°C° 0 mm 1 mps 750 mmHg 94%
    01:00 +14°C° 0 mm 1 mps 751 mmHg 95%
    02:00 +14°C° 0 mm 1 mps 751 mmHg 95%
    03:00 +13°C° 0 mm 1 mps 751 mmHg 95%
    04:00 +14°C° 0 mm 1 mps 751 mmHg 95%
    05:00 +14°C° 0 mm 1 mps 752 mmHg 94%
    06:00 +13°C° 0 mm 0 mps 752 mmHg 93%
    07:00 +15°C° 0 mm 0 mps 752 mmHg 87%
    08:00 +17°C° 0 mm 0 mps 752 mmHg 81%
    09:00 +19°C° 0 mm 0 mps 752 mmHg 75%
    10:00 +22°C° 0 mm 1 mps 752 mmHg 70%
    11:00 +23°C° 0 mm 1 mps 752 mmHg 66%
    12:00 +24°C° 0 mm 1 mps 752 mmHg 62%
    13:00 +24°C° 0 mm 1 mps 752 mmHg 62%
    14:00 +24°C° 0 mm 1 mps 752 mmHg 62%
    15:00 +24°C° 0 mm 1 mps 752 mmHg 61%
    16:00 +23°C° 0 mm 1 mps 752 mmHg 65%
    17:00 +23°C° 0 mm 1 mps 752 mmHg 69%
    18:00 +22°C° 0 mm 1 mps 752 mmHg 73%
    19:00 +20°C° 0 mm 1 mps 752 mmHg 77%
    20:00 +19°C° 0 mm 1 mps 752 mmHg 80%
    21:00 +18°C° 0 mm 1 mps 753 mmHg 84%
    22:00 +18°C° 0 mm 1 mps 753 mmHg 86%
    23:00 +16°C° 0 mm 1 mps 753 mmHg 88%

    26 Agosto, Domingo

    Tiempo Temperatura Precipitaciones Viento Presión Humedad
    00:00 +16°C° 0 mm 2 mps 753 mmHg 90%
    01:00 +15°C° 0 mm 1 mps 753 mmHg 90%
    02:00 +15°C° 0 mm 1 mps 753 mmHg 91%
    03:00 +15°C° 0 mm 1 mps 754 mmHg 92%
    04:00 +15°C° 0 mm 1 mps 754 mmHg 91%
    05:00 +16°C° 0 mm 1 mps 754 mmHg 90%
    06:00 +18°C° 0 mm 1 mps 754 mmHg 90%
    07:00 +19°C° 0 mm 1 mps 754 mmHg 84%
    08:00 +21°C° 0 mm 1 mps 754 mmHg 78%
    09:00 +22°C° 0 mm 1 mps 754 mmHg 73%
    10:00 +24°C° 0 mm 1 mps 754 mmHg 68%
    11:00 +25°C° 0 mm 1 mps 754 mmHg 64%
    12:00 +26°C° 0 mm 1 mps 753 mmHg 59%
    13:00 +26°C° 0,1 mm 1 mps 753 mmHg 59%
    14:00 +26°C° 0,1 mm 1 mps 753 mmHg 58%
    15:00 +26°C° 0,1 mm 2 mps 753 mmHg 57%
    16:00 +25°C° 0 mm 1 mps 753 mmHg 62%
    17:00 +24°C° 0 mm 1 mps 753 mmHg 67%
    18:00 +23°C° 0 mm 1 mps 752 mmHg 71%
    19:00 +22°C° 0 mm 1 mps 752 mmHg 75%
    20:00 +21°C° 0 mm 1 mps 752 mmHg 79%
    21:00 +19°C° 0 mm 1 mps 753 mmHg 83%
    22:00 +19°C° 0 mm 1 mps 753 mmHg 84%
    23:00 +19°C° 0 mm 1 mps 753 mmHg 84%
    Mostrar más